"Date","subscriberCount","subscriberChange","viewCount","viewChange","videoCount","videoChange","commentCount","commentChange"
"2021-02-14 00:02:04","153000","0","144838844","478735","2370","5","","0"
"2021-02-15 00:02:03","155000","2000","146217501","1378657","2376","6","","0"
"2021-02-16 00:02:04","156000","1000","147053731","836230","2397","21","","0"
"2021-02-17 00:02:03","156000","0","147994740","941009","2406","9","","0"
"2021-02-18 00:02:03","157000","1000","149039980","1045240","2418","12","","0"
"2021-02-19 00:02:03","158000","1000","148473430","-566550","2447","29","","0"
"2021-02-20 00:02:04","158000","0","148956160","482730","2471","24","","0"
"2021-02-21 00:02:04","159000","1000","150031690","1075530","2485","14","","0"
"2021-02-22 00:02:04","160000","1000","150923963","892273","2496","11","","0"
"2021-02-23 00:02:03","160000","0","151708370","784407","2498","2","","0"
"2021-02-24 00:02:03","161000","1000","152940661","1232291","2514","16","","0"
"2021-02-25 00:02:03","162000","1000","152707071","-233590","2528","14","","0"
"2021-02-26 00:02:04","163000","1000","153717815","1010744","2543","15","","0"
"2021-02-27 00:02:03","164000","1000","154197408","479593","2559","16","","0"
"2021-02-28 00:02:04","165000","1000","155463547","1266139","2551","-8","","0"
"2021-03-01 00:02:03","165000","0","155753874","290327","2557","6","","0"
"2021-03-02 00:02:04","166000","1000","156721376","967502","2576","19","","0"
"2021-03-03 00:02:04","166000","0","157774305","1052929","2590","14","","0"
"2021-03-04 00:02:03","167000","1000","158615591","841286","2613","23","","0"
"2021-03-05 00:02:04","167000","0","158860152","244561","2623","10","","0"
"2021-03-06 00:02:03","168000","1000","158424504","-435648","2643","20","","0"
"2021-03-07 00:02:04","168000","0","158600865","176361","2653","10","","0"
"2021-03-08 00:02:04","169000","1000","159243154","642289","2660","7","","0"
"2021-03-09 00:02:03","169000","0","159874040","630886","2663","3","","0"
"2021-03-10 00:02:04","170000","1000","160536456","662416","2679","16","","0"
"2021-03-11 00:02:03","171000","1000","161222079","685623","2698","19","","0"
"2021-03-12 00:02:04","172000","1000","162621970","1399891","2715","17","","0"
"2021-03-13 00:02:03","173000","1000","163968634","1346664","2734","19","","0"
"2021-03-14 00:02:04","174000","1000","165723704","1755070","2746","12","","0"
"2021-03-15 00:02:04","175000","1000","167226031","1502327","2754","8","","0"
"2021-03-16 00:02:03","176000","1000","168776046","1550015","2760","6","","0"
"2021-03-17 00:02:03","177000","1000","170251235","1475189","2773","13","","0"
"2021-03-18 00:02:03","178000","1000","171916756","1665521","2784","11","","0"
"2021-03-19 00:02:03","179000","1000","172149234","232478","2797","13","","0"
"2021-03-20 00:02:03","180000","1000","173148055","998821","2813","16","","0"
"2021-03-21 00:02:03","181000","1000","174977781","1829726","2827","14","","0"
"2021-03-22 00:02:03","183000","2000","177097518","2119737","2838","11","","0"
"2021-03-23 00:02:04","184000","1000","179210080","2112562","2852","14","","0"
"2021-03-24 00:02:04","185000","1000","180903597","1693517","2866","14","","0"
"2021-03-25 00:02:03","186000","1000","182348492","1444895","2873","7","","0"
"2021-03-26 00:02:03","187000","1000","183970341","1621849","2897","24","","0"
"2021-03-27 00:02:03","187000","0","185097872","1127531","2914","17","","0"
"2021-03-28 00:02:04","188000","1000","185692201","594329","2909","-5","","0"
"2021-03-29 00:02:04","189000","1000","186964347","1272146","2911","2","","0"
"2021-03-30 00:02:03","189000","0","186595320","-369027","2927","16","","0"
"2021-03-31 00:02:03","190000","1000","187524163","928843","2921","-6","","0"
"2021-04-01 00:02:04","191000","1000","188402104","877941","2935","14","","0"
"2021-04-02 00:02:03","191000","0","189260161","858057","2954","19","","0"
"2021-04-03 00:02:03","192000","1000","187839617","-1420544","2971","17","","0"
"2021-04-04 00:02:03","192000","0","188678143","838526","2973","2","","0"
"2021-04-05 00:02:04","193000","1000","189552235","874092","2981","8","","0"
"2021-04-06 00:02:04","193000","0","189721930","169695","2998","17","","0"
"2021-04-07 00:02:04","194000","1000","190405674","683744","3021","23","","0"
"2021-04-08 00:02:04","194000","0","191038033","632359","3043","22","","0"
"2021-04-09 00:02:04","194000","0","191672371","634338","3058","15","","0"
"2021-04-10 00:02:04","195000","1000","192113286","440915","3078","20","","0"
"2021-04-11 00:02:04","195000","0","192647305","534019","3082","4","","0"
"2021-04-12 00:02:04","196000","1000","193269241","621936","3082","0","","0"
"2021-04-13 00:02:04","197000","1000","194053802","784561","2994","-88","","0"
"2021-04-14 00:02:04","197000","0","194979578","925776","3004","10","","0"
"2021-04-15 00:02:04","198000","1000","191139686","-3839892","3022","18","","0"
"2021-04-16 00:02:05","199000","1000","191657295","517609","3030","8","","0"
"2021-04-17 00:02:04","199000","0","192312979","655684","3043","13","","0"
"2021-04-18 00:02:05","200000","1000","192495296","182317","3050","7","","0"
"2021-04-19 00:02:05","201000","1000","193355681","860385","3057","7","","0"
"2021-04-20 00:02:04","202000","1000","194332064","976383","3076","19","","0"
"2021-04-21 00:02:04","203000","1000","195352238","1020174","3093","17","","0"
"2021-04-22 00:02:04","204000","1000","196508351","1156113","3112","19","","0"
"2021-04-23 00:02:04","204000","0","197575519","1067168","3126","14","","0"
"2021-04-24 00:02:04","205000","1000","198867226","1291707","3136","10","","0"
"2021-04-25 00:02:04","206000","1000","200239259","1372033","3147","11","","0"
"2021-04-26 00:02:05","207000","1000","201895394","1656135","3157","10","","0"
"2021-04-27 00:02:04","208000","1000","204080445","2185051","3178","21","","0"
"2021-04-28 00:02:04","208000","0","205869813","1789368","3192","14","","0"
"2021-04-29 00:02:04","210000","2000","207964685","2094872","3194","2","","0"
"2021-04-30 00:02:04","211000","1000","209889636","1924951","3209","15","","0"
"2021-05-01 00:02:05","212000","1000","211416562","1526926","3220","11","","0"
"2021-05-02 00:02:04","213000","1000","213042146","1625584","3231","11","","0"
"2021-05-03 00:02:05","214000","1000","214946792","1904646","3236","5","","0"
"2021-05-04 00:02:05","214000","0","215323598","376806","3254","18","","0"
"2021-05-05 00:02:04","215000","1000","215402440","78842","3275","21","","0"
"2021-05-06 00:02:04","216000","1000","217049642","1647202","3279","4","","0"
"2021-05-07 00:02:05","217000","1000","218685202","1635560","3296","17","","0"
"2021-05-08 00:02:04","217000","0","219743585","1058383","3313","17","","0"
"2021-05-09 00:02:03","218000","1000","220747977","1004392","3315","2","","0"
"2021-05-10 00:02:05","219000","1000","222336262","1588285","3321","6","","0"
"2021-05-11 00:02:04","220000","1000","223945711","1609449","3347","26","","0"
"2021-05-12 00:02:05","221000","1000","225860784","1915073","3360","13","","0"
"2021-05-13 00:02:04","222000","1000","227931609","2070825","3378","18","","0"
"2021-05-14 00:02:05","223000","1000","229358061","1426452","3402","24","","0"
"2021-05-15 00:02:05","224000","1000","228585931","-772130","3415","13","","0"
"2021-05-16 00:02:05","225000","1000","230741194","2155263","3419","4","","0"
"2021-05-17 00:02:04","227000","2000","233710336","2969142","3430","11","","0"
"2021-05-18 00:02:05","228000","1000","235499379","1789043","3448","18","","0"
"2021-05-19 00:02:04","229000","1000","237929273","2429894","3465","17","","0"
"2021-05-20 00:02:04","232000","3000","242221194","4291921","3479","14","","0"
"2021-05-21 00:02:05","234000","2000","247724883","5503689","3503","24","","0"
"2021-05-22 00:02:05","236000","2000","251768409","4043526","3522","19","","0"
"2021-05-23 00:02:05","237000","1000","255065619","3297210","3527","5","","0"
"2021-05-24 00:02:05","238000","1000","258352636","3287017","3534","7","","0"
"2021-05-25 00:02:05","239000","1000","260659403","2306767","3556","22","","0"
"2021-05-26 00:02:04","240000","1000","263356148","2696745","3565","9","","0"
"2021-05-27 00:02:04","243000","3000","266402142","3045994","3588","23","","0"
"2021-05-28 00:02:05","245000","2000","268336911","1934769","3605","17","","0"
"2021-05-29 00:02:05","246000","1000","268147307","-189604","3622","17","","0"
"2021-05-30 00:02:06","247000","1000","270813102","2665795","3622","0","","0"
"2021-05-31 00:02:05","249000","2000","273661366","2848264","3629","7","","0"
"2021-06-01 00:02:05","250000","1000","276459576","2798210","3650","21","","0"
"2021-06-02 00:02:04","251000","1000","279856442","3396866","3668","18","","0"
"2021-06-03 00:02:04","252000","1000","282335506","2479064","3683","15","","0"
"2021-06-04 00:02:04","253000","1000","284932383","2596877","3703","20","","0"
"2021-06-05 00:02:04","254000","1000","286555271","1622888","3715","12","","0"
"2021-06-06 00:02:04","255000","1000","287308643","753372","3720","5","","0"
"2021-06-07 00:02:04","256000","1000","289176677","1868034","3726","6","","0"
"2021-06-08 00:02:06","257000","1000","288743702","-432975","3743","17","","0"
"2021-06-09 00:02:03","258000","1000","290807062","2063360","3762","19","","0"
"2021-06-10 00:02:04","259000","1000","292755810","1948748","3785","23","","0"
"2021-06-11 00:02:04","260000","1000","294529514","1773704","3798","13","","0"
"2021-06-12 00:02:05","261000","1000","295657389","1127875","3818","20","","0"
"2021-06-13 00:02:04","262000","1000","296844940","1187551","3818","0","","0"
"2021-06-14 00:02:04","263000","1000","299020430","2175490","3830","12","","0"
"2021-06-15 00:02:04","264000","1000","301354312","2333882","3848","18","","0"
"2021-06-16 00:02:04","265000","1000","302635051","1280739","3869","21","","0"
"2021-06-17 00:02:04","266000","1000","305735355","3100304","3896","27","","0"
"2021-06-18 00:02:04","267000","1000","305868098","132743","3904","8","","0"
"2021-06-19 00:02:04","268000","1000","308284260","2416162","3922","18","","0"
"2021-06-20 00:02:04","269000","1000","310202654","1918394","3923","1","","0"
"2021-06-21 00:02:04","270000","1000","311343784","1141130","3928","5","","0"
"2021-06-22 00:02:04","271000","1000","310773191","-570593","3949","21","","0"
"2021-06-23 00:02:04","271000","0","312229806","1456615","3968","19","","0"
"2021-06-24 00:02:04","272000","1000","313781815","1552009","3978","10","","0"
"2021-06-25 00:02:04","273000","1000","313474752","-307063","4002","24","","0"
"2021-06-26 00:02:04","274000","1000","315286157","1811405","4025","23","","0"
"2021-06-27 00:02:05","276000","2000","317955106","2668949","4029","4","","0"
"2021-06-28 00:02:04","277000","1000","321288239","3333133","4037","8","","0"
"2021-06-29 00:02:04","278000","1000","323952553","2664314","4054","17","","0"
"2021-06-30 00:02:04","280000","2000","325861114","1908561","4075","21","","0"
"2021-07-01 00:02:05","281000","1000","329821155","3960041","4095","20","","0"
"2021-07-02 00:02:05","283000","2000","333240023","3418868","4110","15","","0"
"2021-07-03 00:02:06","284000","1000","336666634","3426611","4105","-5","","0"
"2021-07-04 00:02:05","285000","1000","339082957","2416323","4110","5","","0"
"2021-07-05 00:02:05","286000","1000","332970410","-6112547","4119","9","","0"
"2021-07-06 00:02:05","286000","0","332961507","-8903","4128","9","","0"
"2021-07-07 00:02:04","287000","1000","334353546","1392039","4141","13","","0"
"2021-07-08 00:02:05","288000","1000","335898885","1545339","4147","6","","0"
"2021-07-09 00:02:05","289000","1000","336477548","578663","4169","22","","0"
"2021-07-10 00:02:05","290000","1000","332959171","-3518377","4180","11","","0"
"2021-07-11 00:02:03","291000","1000","331952858","-1006313","4188","8","","0"
"2021-07-12 00:02:04","292000","1000","332552259","599401","4197","9","","0"
"2021-07-13 00:02:03","292000","0","331588968","-963291","4213","16","","0"
"2021-07-14 00:02:04","293000","1000","332882536","1293568","4228","15","","0"
"2021-07-15 00:02:04","294000","1000","334197913","1315377","4238","10","","0"
"2021-07-16 00:02:04","295000","1000","335114316","916403","4261","23","","0"
"2021-07-17 00:02:03","296000","1000","337077313","1962997","4281","20","","0"
"2021-07-18 00:02:03","297000","1000","338002817","925504","4296","15","","0"
"2021-07-19 00:02:04","298000","1000","340374011","2371194","4305","9","","0"
"2021-07-20 00:02:04","298000","0","342433211","2059200","4327","22","","0"
"2021-07-21 00:02:03","299000","1000","344552681","2119470","4347","20","","0"
"2021-07-22 00:02:03","300000","1000","346569552","2016871","4364","17","","0"
"2021-07-23 00:02:04","301000","1000","348755324","2185772","4376","12","","0"
"2021-07-24 00:02:03","306000","5000","350677912","1922588","4383","7","","0"
"2021-07-25 00:02:04","308000","2000","355722369","5044457","4403","20","","0"
"2021-07-26 00:02:03","309000","1000","350835542","-4886827","4414","11","","0"
"2021-07-27 00:02:03","309000","0","352471407","1635865","4427","13","","0"
"2021-07-28 00:02:04","310000","1000","354211185","1739778","4439","12","","0"
"2021-07-29 00:02:03","311000","1000","355525780","1314595","4459","20","","0"
"2021-07-30 00:02:03","311000","0","356597821","1072041","4478","19","","0"
"2021-07-31 00:02:04","312000","1000","357573782","975961","4513","35","","0"
"2021-08-01 00:02:03","313000","1000","358150150","576368","4522","9","","0"
"2021-08-02 00:02:03","314000","1000","359020537","870387","4528","6","","0"
"2021-08-03 00:02:03","315000","1000","358690414","-330123","4543","15","","0"
"2021-08-04 00:02:03","316000","1000","360365877","1675463","4568","25","","0"
"2021-08-05 00:02:03","317000","1000","361782154","1416277","4588","20","","0"
"2021-08-06 00:02:03","318000","1000","363292947","1510793","4598","10","","0"
"2021-08-07 00:02:03","318000","0","364165166","872219","4624","26","","0"
"2021-08-08 00:02:04","319000","1000","365073235","908069","4628","4","","0"
"2021-08-09 00:02:03","320000","1000","365144140","70905","4636","8","","0"
"2021-08-10 00:02:04","321000","1000","365758172","614032","4657","21","","0"
"2021-08-11 00:02:04","321000","0","365758172","0","4674","17","","0"
"2021-08-12 00:02:03","322000","1000","367911960","2153788","4690","16","","0"
"2021-08-13 00:02:03","323000","1000","369011352","1099392","4722","32","","0"
"2021-08-14 00:02:04","324000","1000","368920794","-90558","4759","37","","0"
"2021-08-15 00:02:04","325000","1000","370294467","1373673","4769","10","","0"
"2021-08-16 00:02:05","326000","1000","371946571","1652104","4782","13","","0"
"2021-08-17 00:02:04","327000","1000","372062134","115563","4817","35","","0"
"2021-08-18 00:02:03","327000","0","373624367","1562233","4838","21","","0"
"2021-08-19 00:02:03","328000","1000","374804701","1180334","4863","25","","0"
"2021-08-20 00:02:03","330000","2000","374358189","-446512","4880","17","","0"
"2021-08-21 00:02:03","331000","1000","376210793","1852604","4903","23","","0"
"2021-08-22 00:02:08","332000","1000","377268503","1057710","4923","20","","0"
"2021-08-23 00:02:03","333000","1000","378931096","1662593","4933","10","","0"
"2021-08-24 00:02:04","334000","1000","380487429","1556333","4943","10","","0"
"2021-08-25 00:02:03","336000","2000","381855476","1368047","4976","33","","0"
"2021-08-26 00:02:04","337000","1000","383008164","1152688","5000","24","","0"
"2021-08-27 00:02:03","338000","1000","384951404","1943240","5024","24","","0"
"2021-08-28 00:02:04","339000","1000","386317536","1366132","5066","42","","0"
"2021-08-29 00:02:03","341000","2000","388405413","2087877","5073","7","","0"
"2021-08-30 00:02:04","342000","1000","390275906","1870493","5087","14","","0"
"2021-08-31 00:02:03","344000","2000","391345408","1069502","5099","12","","0"
"2021-09-01 00:02:04","346000","2000","394170261","2824853","5127","28","","0"
"2021-09-02 00:02:03","347000","1000","396418523","2248262","5159","32","","0"
"2021-09-03 00:02:04","348000","1000","398130606","1712083","5196","37","","0"
"2021-09-04 00:02:04","350000","2000","400939616","2809010","5245","49","","0"
"2021-09-05 00:02:03","352000","2000","401170425","230809","5255","10","","0"
"2021-09-06 00:02:03","353000","1000","403477098","2306673","5264","9","","0"
"2021-09-07 00:02:03","354000","1000","404991256","1514158","5291","27","","0"
"2021-09-08 00:02:03","355000","1000","406882496","1891240","5326","35","","0"
"2021-09-09 00:02:03","356000","1000","407832620","950124","5351","25","","0"
"2021-09-10 00:02:03","356000","0","408421983","589363","5402","51","","0"
"2021-09-11 00:02:04","357000","1000","410168580","1746597","5436","34","","0"
"2021-09-12 00:02:03","359000","2000","411869266","1700686","5436","0","","0"
"2021-09-13 00:02:03","360000","1000","414038612","2169346","5444","8","","0"
"2021-09-14 00:02:04","361000","1000","407762011","-6276601","5469","25","","0"
"2021-09-15 00:02:03","363000","2000","409385475","1623464","5505","36","","0"
"2021-09-16 00:02:04","364000","1000","412403273","3017798","5525","20","","0"
"2021-09-17 00:02:03","366000","2000","414474138","2070865","5551","26","","0"
"2021-09-18 00:02:04","367000","1000","416836472","2362334","5594","43","","0"
"2021-09-19 00:02:03","368000","1000","418816804","1980332","5620","26","","0"
"2021-09-20 00:02:03","370000","2000","420718861","1902057","5629","9","","0"
"2021-09-21 00:02:03","371000","1000","422096933","1378072","5649","20","","0"
"2021-09-22 00:02:03","372000","1000","424173077","2076144","5677","28","","0"
"2021-09-23 00:02:04","373000","1000","423888661","-284416","5707","30","","0"
"2021-09-24 00:02:03","374000","1000","425133945","1245284","5732","25","","0"
"2021-09-25 00:02:04","375000","1000","426343942","1209997","5782","50","","0"
"2021-09-26 00:02:03","377000","2000","427731704","1387762","5791","9","","0"
"2021-09-27 00:02:03","379000","2000","430720546","2988842","5802","11","","0"
"2021-09-28 00:02:03","380000","1000","433831392","3110846","5813","11","","0"
"2021-09-29 00:02:05","381000","1000","436781236","2949844","5852","39","","0"
"2021-09-30 00:02:04","384000","3000","439226438","2445202","5896","44","","0"
"2021-10-01 00:02:05","386000","2000","441953275","2726837","5908","12","","0"
"2021-10-02 00:02:04","387000","1000","445659446","3706171","5950","42","","0"
"2021-10-03 00:02:03","388000","1000","445659446","0","5951","1","","0"
"2021-10-04 00:02:03","390000","2000","449664156","4004710","5967","16","","0"
"2021-10-05 00:02:04","391000","1000","452477754","2813598","6015","48","","0"
"2021-10-06 00:02:04","392000","1000","455574605","3096851","6045","30","","0"
"2021-10-07 00:02:03","394000","2000","458434484","2859879","6067","22","","0"
"2021-10-08 00:02:04","396000","2000","460883142","2448658","6102","35","","0"
"2021-10-09 00:02:03","398000","2000","461784191","901049","6156","54","","0"
"2021-10-10 00:02:04","399000","1000","463528457","1744266","6171","15","","0"
"2021-10-11 00:02:04","400000","1000","465691122","2162665","6189","18","","0"
"2021-10-12 00:02:03","401000","1000","467411517","1720395","6231","42","","0"
"2021-10-13 00:02:03","402000","1000","468753992","1342475","6276","45","","0"
"2021-10-14 00:02:03","403000","1000","471234511","2480519","6327","51","","0"
"2021-10-15 00:02:04","405000","2000","473877366","2642855","6335","8","","0"
"2021-10-16 00:02:03","406000","1000","476011531","2134165","6375","40","","0"
"2021-10-17 00:02:04","407000","1000","477541521","1529990","6392","17","","0"
"2021-10-18 00:02:04","409000","2000","476049967","-1491554","6408","16","","0"
"2021-10-19 00:02:03","410000","1000","477521111","1471144","6460","52","","0"
"2021-10-20 00:02:03","411000","1000","479596093","2074982","6472","12","","0"
"2021-10-21 00:02:04","413000","2000","480779056","1182963","6499","27","","0"
"2021-10-22 00:02:03","414000","1000","481848519","1069463","6529","30","","0"
"2021-10-23 00:02:03","416000","2000","481848519","0","6577","48","","0"
"2021-10-24 00:02:05","418000","2000","485851149","4002630","6590","13","","0"
"2021-10-25 00:02:04","419000","1000","486496433","645284","6611","21","","0"
"2021-10-26 00:02:04","420000","1000","488046538","1550105","6639","28","","0"
"2021-10-27 00:02:03","421000","1000","489618324","1571786","6651","12","","0"
"2021-10-28 00:02:03","423000","2000","492281554","2663230","6689","38","","0"
"2021-10-29 00:02:04","424000","1000","492655680","374126","6714","25","","0"
"2021-10-30 00:02:03","425000","1000","494062389","1406709","6759","45","","0"
"2021-10-31 00:02:03","426000","1000","493046361","-1016028","6774","15","","0"
"2021-11-01 00:02:05","429000","3000","495187069","2140708","6828","54","","0"
"2021-11-02 00:02:04","431000","2000","499262218","4075149","6874","46","","0"
"2021-11-03 00:02:04","432000","1000","502689048","3426830","6895","21","","0"
"2021-11-04 00:02:04","433000","1000","505173558","2484510","6922","27","","0"
"2021-11-05 00:02:03","434000","1000","506116819","943261","6959","37","","0"
"2021-11-06 00:02:04","435000","1000","507245630","1128811","6993","34","","0"
"2021-11-07 00:02:03","436000","1000","507710560","464930","7005","12","","0"
"2021-11-08 00:02:03","437000","1000","508980402","1269842","7004","-1","","0"
"2021-11-09 00:02:04","438000","1000","510832774","1852372","7046","42","","0"
"2021-11-10 00:02:03","439000","1000","511338754","505980","7106","60","","0"
"2021-11-11 00:02:03","439000","0","511846015","507261","7120","14","","0"
"2021-11-12 00:02:04","440000","1000","513313450","1467435","7151","31","","0"
"2021-11-13 00:02:04","441000","1000","514031839","718389","7182","31","","0"
"2021-11-14 00:02:03","442000","1000","514564816","532977","7192","10","","0"
"2021-11-15 00:02:03","443000","1000","515927730","1362914","7191","-1","","0"
"2021-11-16 00:02:04","444000","1000","517310866","1383136","7220","29","","0"
"2021-11-17 00:02:04","445000","1000","518705920","1395054","7265","45","","0"
"2021-11-18 00:02:03","446000","1000","519775880","1069960","7301","36","","0"
"2021-11-19 00:02:03","447000","1000","521208819","1432939","7352","51","","0"
"2021-11-20 00:02:04","448000","1000","522993719","1784900","7390","38","","0"
"2021-11-21 00:02:04","449000","1000","522727831","-265888","7406","16","","0"
"2021-11-22 00:02:04","450000","1000","524731023","2003192","7422","16","","0"
"2021-11-23 00:02:03","451000","1000","526066983","1335960","7458","36","","0"
"2021-11-24 00:02:04","453000","2000","527287884","1220901","7500","42","","0"
"2021-11-25 00:02:03","453000","0","528597039","1309155","7541","41","","0"
"2021-11-26 00:02:04","454000","1000","528253095","-343944","7584","43","","0"
"2021-11-27 00:02:04","455000","1000","529655343","1402248","7625","41","","0"
"2021-11-28 00:02:04","456000","1000","530989423","1334080","7638","13","","0"
"2021-11-29 00:02:03","457000","1000","532531703","1542280","7652","14","","0"
"2021-11-30 00:02:04","459000","2000","534358447","1826744","7684","32","","0"
"2021-12-01 00:02:05","460000","1000","536153693","1795246","7721","37","","0"
"2021-12-02 00:02:03","461000","1000","536837629","683936","7765","44","","0"
"2021-12-03 00:02:04","462000","1000","538297026","1459397","7797","32","","0"
"2021-12-04 00:02:03","463000","1000","538790999","493973","7837","40","","0"
"2021-12-05 00:02:03","464000","1000","539870326","1079327","7852","15","","0"
"2021-12-06 00:02:04","466000","2000","540822495","952169","7880","28","","0"
"2021-12-07 00:02:04","468000","2000","543709673","2887178","7923","43","","0"
"2021-12-08 00:02:03","470000","2000","545802822","2093149","7957","34","","0"
"2021-12-09 00:02:03","471000","1000","546861362","1058540","7997","40","","0"
"2021-12-10 00:02:03","472000","1000","548794399","1933037","8017","20","","0"
"2021-12-11 00:02:04","473000","1000","549500124","705725","8054","37","","0"
"2021-12-12 00:02:04","475000","2000","550023276","523152","8066","12","","0"
"2021-12-13 00:02:03","476000","1000","551873943","1850667","8070","4","","0"
"2021-12-14 00:02:04","477000","1000","553014959","1141016","8107","37","","0"
"2021-12-15 00:02:03","478000","1000","554820788","1805829","8142","35","","0"